QPF
0.04 0.08 0.17 0.18 0.23 0.18 0.12 0.10 0.08 0.08 0.08 0.09 0.10 0.06 0.04 0.04 0.04 0.04 0.04 0.03 0.02 0.02 0.02 0.03 0.03 0.03 0.03 0.03 0.03 0.02 0.02 0.02 0.03 0.02 0.02 0.03 0.04 0.03 0.03 0.03 0.04 0.04 0.04
0.06 0.13 0.20 0.21 0.22 0.17 0.13 0.11 0.10 0.08 0.08 0.10 0.10 0.05 0.04 0.03 0.03 0.03 0.02 0.02 0.01 0.01 0.01 0.01 0.02 0.02 0.03 0.04 0.04 0.03 0.03 0.02 0.03 0.03 0.02 0.02 0.03 0.03 0.04 0.03 0.04 0.06 0.06
0.09 0.14 0.19 0.20 0.19 0.20 0.17 0.12 0.09 0.06 0.06 0.07 0.08 0.05 0.04 0.02 0.02 0.03 0.02 0.02 0.02 0.01 0.01 0.01 0.02 0.02 0.03 0.03 0.04 0.03 0.03 0.02 0.03 0.02 0.02 0.02 0.03 0.04 0.04 0.06 0.05 0.06 0.05
0.07 0.09 0.17 0.23 0.19 0.17 0.14 0.13 0.09 0.07 0.07 0.05 0.06 0.06 0.05 0.03 0.04 0.05 0.04 0.04 0.03 0.02 0.02 0.02 0.02 0.02 0.02 0.02 0.03 0.03 0.03 0.03 0.03 0.02 0.01 0.01 0.02 0.03 0.04 0.04 0.04 0.06 0.05
0.06 0.08 0.17 0.24 0.20 0.16 0.13 0.11 0.09 0.09 0.09 0.06 0.06 0.05 0.05 0.04 0.05 0.05 0.05 0.04 0.03 0.03 0.02 0.02 0.02 0.02 0.02 0.03 0.03 0.03 0.03 0.02 0.02 0.01 0.01 0.02 0.02 0.04 0.04 0.05 0.03 0.05 0.05
0.07 0.09 0.25 0.30 0.21 0.14 0.11 0.10 0.09 0.09 0.08 0.07 0.07 0.06 0.05 0.05 0.05 0.04 0.04 0.06 0.05 0.03 0.02 0.01 0.02 0.03 0.03 0.03 0.04 0.05 0.04 0.02 0.02 0.02 0.03 0.03 0.04 0.05 0.05 0.05 0.02 0.02 0.04
0.07 0.09 0.21 0.27 0.20 0.14 0.10 0.09 0.09 0.10 0.08 0.08 0.08 0.07 0.07 0.06 0.05 0.05 0.04 0.04 0.03 0.02 0.02 0.02 0.02 0.02 0.03 0.03 0.05 0.05 0.04 0.02 0.01 0.02 0.03 0.03 0.02 0.04 0.05 0.03 0.03 0.02 0.03
0.09 0.10 0.15 0.20 0.16 0.16 0.14 0.15 0.14 0.12 0.10 0.09 0.08 0.06 0.05 0.06 0.05 0.03 0.03 0.02 0.01 0.01 0.02 0.01 0.02 0.03 0.03 0.04 0.05 0.05 0.03 0.01 0.01 0.01 0.03 0.04 0.02 0.03 0.05 0.03 0.03 0.03 0.03
0.09 0.09 0.13 0.20 0.17 0.20 0.21 0.16 0.10 0.07 0.07 0.07 0.07 0.05 0.05 0.04 0.04 0.04 0.03 0.02 0.02 0.02 0.02 0.01 0.02 0.03 0.03 0.04 0.05 0.04 0.03 0.01 0.01 0.00 0.01 0.02 0.02 0.04 0.05 0.03 0.04 0.06 0.04
0.07 0.08 0.11 0.16 0.09 0.08 0.10 0.09 0.09 0.09 0.07 0.06 0.06 0.05 0.04 0.04 0.04 0.05 0.04 0.03 0.03 0.02 0.02 0.01 0.02 0.02 0.03 0.03 0.04 0.03 0.02 0.01 0.01 0.00 0.01 0.01 0.03 0.05 0.05 0.03 0.05 0.07 0.07
0.05 0.05 0.06 0.07 0.06 0.06 0.06 0.07 0.11 0.09 0.07 0.06 0.04 0.03 0.03 0.03 0.03 0.03 0.03 0.04 0.04 0.04 0.03 0.02 0.02 0.04 0.03 0.03 0.04 0.03 0.02 0.02 0.01 0.01 0.01 0.01 0.03 0.06 0.05 0.04 0.05 0.07 0.06
0.03 0.03 0.02 0.03 0.03 0.03 0.04 0.05 0.07 0.09 0.08 0.05 0.04 0.03 0.01 0.01 0.01 0.01 0.02 0.03 0.05 0.05 0.04 0.03 0.03 0.03 0.01 0.02 0.03 0.02 0.02 0.02 0.01 0.01 0.01 0.03 0.04 0.04 0.04 0.04 0.05 0.06 0.07
0.03 0.01 0.02 0.02 0.02 0.01 0.03 0.03 0.03 0.06 0.08 0.05 0.03 0.02 0.01 0.01 0.01 0.01 0.02 0.03 0.03 0.03 0.03 0.02 0.02 0.01 0.01 0.01 0.01 0.02 0.02 0.03 0.02 0.02 0.01 0.03 0.05 0.04 0.04 0.05 0.07 0.08 0.10
0.02 0.02 0.02 0.02 0.01 0.01 0.01 0.01 0.01 0.01 0.03 0.02 0.01 0.01 0.00 0.00 0.01 0.01 0.01 0.01 0.01 0.01 0.02 0.03 0.02 0.01 0.01 0.01 0.02 0.02 0.02 0.02 0.02 0.01 0.01 0.03 0.07 0.07 0.04 0.05 0.05 0.08 0.08
0.03 0.02 0.02 0.01 0.01 0.00 0.00 0.00 0.00 0.00 0.00 0.00 0.00 0.00 0.00 0.00 0.00 0.00 0.00 0.01 0.01 0.02 0.02 0.02 0.01 0.01 0.01 0.01 0.01 0.01 0.01 0.01 0.00 0.01 0.02 0.02 0.05 0.08 0.08 0.07 0.07 0.09 0.08
0.02 0.01 0.01 0.01 0.01 0.01 0.00 0.00 0.00 0.00 0.00 0.00 0.00 0.00 0.00 0.00 0.00 0.00 0.01 0.01 0.01 0.01 0.01 0.01 0.01 0.01 0.01 0.02 0.02 0.02 0.01 0.01 0.01 0.01 0.01 0.01 0.02 0.06 0.11 0.08 0.09 0.11 0.12
0.01 0.00 0.00 0.01 0.01 0.02 0.01 0.00 0.00 0.00 0.00 0.00 0.00 0.00 0.00 0.00 0.00 0.00 0.00 0.01 0.01 0.01 0.00 0.00 0.01 0.01 0.01 0.02 0.02 0.02 0.02 0.02 0.01 0.01 0.01 0.02 0.02 0.09 0.13 0.11 0.08 0.08 0.12
0.01 0.00 0.00 0.00 0.01 0.02 0.02 0.01 0.01 0.00 0.00 0.00 0.00 0.00 0.00 0.00 0.00 0.00 0.00 0.00 0.00 0.00 0.00 0.01 0.01 0.01 0.02 0.02 0.02 0.02 0.01 0.02 0.02 0.01 0.01 0.01 0.02 0.07 0.11 0.10 0.09 0.08 0.09
0.00 0.00 0.00 0.00 0.00 0.01 0.02 0.02 0.01 0.01 0.00 0.00 0.00 0.00 0.00 0.00 0.00 0.00 0.00 0.00 0.00 0.00 0.01 0.01 0.01 0.02 0.02 0.03 0.02 0.01 0.01 0.02 0.02 0.02 0.02 0.01 0.01 0.02 0.06 0.12 0.12 0.10 0.09
0.00 0.00 0.00 0.01 0.01 0.01 0.02 0.02 0.01 0.01 0.00 0.00 0.00 0.00 0.00 0.00 0.00 0.00 0.00 0.00 0.00 0.00 0.01 0.02 0.02 0.02 0.02 0.02 0.02 0.01 0.01 0.02 0.02 0.01 0.02 0.01 0.01 0.01 0.04 0.12 0.11 0.08 0.07
0.00 0.00 0.00 0.01 0.01 0.01 0.02 0.01 0.01 0.01 0.00 0.00 0.00 0.00 0.00 0.00 0.00 0.00 0.00 0.00 0.00 0.01 0.01 0.01 0.02 0.02 0.02 0.02 0.02 0.03 0.03 0.03 0.02 0.01 0.01 0.01 0.01 0.01 0.05 0.13 0.12 0.10 0.09
0.01 0.01 0.01 0.01 0.02 0.02 0.02 0.02 0.01 0.01 0.00 0.00 0.00 0.01 0.00 0.00 0.00 0.00 0.00 0.00 0.00 0.01 0.01 0.01 0.01 0.01 0.01 0.02 0.03 0.04 0.03 0.03 0.02 0.01 0.01 0.01 0.01 0.02 0.03 0.09 0.11 0.11 0.11
0.01 0.01 0.01 0.01 0.02 0.02 0.02 0.02 0.02 0.02 0.01 0.00 0.00 0.01 0.00 0.00 0.00 0.00 0.00 0.00 0.00 0.01 0.01 0.01 0.01 0.01 0.01 0.01 0.02 0.03 0.03 0.03 0.03 0.02 0.01 0.02 0.02 0.03 0.02 0.02 0.03 0.05 0.07
0.01 0.01 0.01 0.02 0.02 0.02 0.01 0.01 0.02 0.02 0.01 0.01 0.01 0.01 0.00 0.00 0.00 0.00 0.00 0.00 0.00 0.00 0.01 0.01 0.02 0.02 0.02 0.01 0.01 0.01 0.01 0.02 0.02 0.02 0.02 0.02 0.03 0.03 0.03 0.03 0.03 0.04 0.04
0.02 0.02 0.01 0.02 0.02 0.01 0.01 0.01 0.01 0.02 0.02 0.02 0.01 0.00 0.00 0.00 0.00 0.00 0.00 0.00 0.00 0.00 0.00 0.01 0.01 0.01 0.01 0.01 0.02 0.01 0.01 0.02 0.01 0.01 0.01 0.02 0.05 0.05 0.04 0.04 0.04 0.04 0.03
0.02 0.01 0.01 0.01 0.01 0.01 0.01 0.01 0.01 0.01 0.02 0.02 0.02 0.01 0.01 0.00 0.00 0.00 0.00 0.00 0.00 0.00 0.00 0.00 0.00 0.01 0.00 0.00 0.01 0.01 0.01 0.02 0.01 0.01 0.01 0.02 0.04 0.04 0.04 0.04 0.04 0.03 0.03
MSLP
1013.73 1013.62 1013.61 1013.69 1013.83 1013.99 1014.13 1014.24 1014.30 1014.34 1014.38 1014.43 1014.54 1014.70 1014.91 1015.15 1015.40 1015.64 1015.83 1015.98 1016.09 1016.16 1016.22 1016.29 1016.37 1016.46 1016.56 1016.67 1016.76 1016.83 1016.88 1016.91 1016.92 1016.93 1016.94 1016.94 1016.92 1016.90 1016.84 1016.77 1016.67 1016.56 1016.46
1013.88 1013.78 1013.79 1013.90 1014.07 1014.26 1014.44 1014.57 1014.65 1014.69 1014.73 1014.78 1014.87 1015.01 1015.21 1015.43 1015.66 1015.86 1016.03 1016.16 1016.25 1016.31 1016.38 1016.45 1016.54 1016.65 1016.76 1016.86 1016.93 1016.98 1016.99 1017.00 1016.99 1017.00 1017.02 1017.05 1017.08 1017.10 1017.10 1017.06 1016.99 1016.89 1016.79
1014.01 1013.93 1013.97 1014.11 1014.32 1014.54 1014.75 1014.92 1015.02 1015.09 1015.13 1015.18 1015.27 1015.39 1015.56 1015.74 1015.93 1016.09 1016.21 1016.30 1016.37 1016.42 1016.49 1016.58 1016.70 1016.82 1016.93 1017.02 1017.07 1017.08 1017.05 1017.02 1016.98 1016.98 1017.01 1017.07 1017.14 1017.22 1017.28 1017.29 1017.27 1017.21 1017.13
1014.15 1014.10 1014.17 1014.34 1014.59 1014.85 1015.09 1015.29 1015.43 1015.51 1015.57 1015.63 1015.70 1015.81 1015.94 1016.09 1016.22 1016.33 1016.40 1016.45 1016.50 1016.55 1016.63 1016.74 1016.87 1017.01 1017.13 1017.21 1017.23 1017.20 1017.12 1017.03 1016.96 1016.93 1016.96 1017.04 1017.15 1017.28 1017.40 1017.47 1017.50 1017.49 1017.44
1014.33 1014.31 1014.41 1014.62 1014.89 1015.19 1015.46 1015.68 1015.84 1015.94 1016.01 1016.07 1016.14 1016.23 1016.34 1016.44 1016.53 1016.59 1016.63 1016.65 1016.67 1016.73 1016.82 1016.95 1017.11 1017.27 1017.40 1017.46 1017.45 1017.37 1017.25 1017.10 1016.98 1016.92 1016.93 1017.02 1017.16 1017.33 1017.49 1017.61 1017.69 1017.72 1017.72
1014.56 1014.58 1014.72 1014.95 1015.24 1015.55 1015.84 1016.06 1016.23 1016.33 1016.40 1016.46 1016.53 1016.61 1016.70 1016.78 1016.84 1016.87 1016.88 1016.88 1016.90 1016.96 1017.07 1017.22 1017.41 1017.58 1017.71 1017.77 1017.73 1017.61 1017.43 1017.24 1017.08 1016.98 1016.97 1017.05 1017.20 1017.39 1017.58 1017.74 1017.85 1017.91 1017.94
1014.86 1014.91 1015.07 1015.32 1015.62 1015.93 1016.20 1016.42 1016.57 1016.66 1016.73 1016.78 1016.84 1016.91 1016.99 1017.06 1017.10 1017.13 1017.13 1017.13 1017.15 1017.21 1017.34 1017.51 1017.71 1017.90 1018.03 1018.07 1018.02 1017.87 1017.66 1017.42 1017.23 1017.10 1017.08 1017.15 1017.31 1017.50 1017.70 1017.87 1018.00 1018.07 1018.11
1015.20 1015.27 1015.44 1015.69 1015.99 1016.28 1016.53 1016.71 1016.83 1016.90 1016.94 1016.98 1017.03 1017.10 1017.18 1017.25 1017.30 1017.32 1017.32 1017.32 1017.35 1017.43 1017.56 1017.74 1017.94 1018.13 1018.26 1018.30 1018.23 1018.07 1017.84 1017.60 1017.39 1017.25 1017.23 1017.30 1017.45 1017.65 1017.85 1018.02 1018.14 1018.21 1018.24
1015.56 1015.64 1015.81 1016.05 1016.32 1016.58 1016.79 1016.93 1017.01 1017.04 1017.05 1017.07 1017.11 1017.17 1017.25 1017.32 1017.38 1017.41 1017.42 1017.42 1017.45 1017.52 1017.65 1017.82 1018.02 1018.20 1018.32 1018.36 1018.29 1018.13 1017.91 1017.67 1017.48 1017.36 1017.35 1017.44 1017.61 1017.81 1018.02 1018.19 1018.30 1018.35 1018.36
1015.90 1015.98 1016.14 1016.36 1016.60 1016.81 1016.98 1017.07 1017.11 1017.10 1017.08 1017.07 1017.09 1017.14 1017.22 1017.29 1017.35 1017.38 1017.39 1017.39 1017.41 1017.47 1017.58 1017.73 1017.91 1018.07 1018.18 1018.21 1018.14 1018.00 1017.80 1017.60 1017.45 1017.37 1017.40 1017.53 1017.72 1017.95 1018.17 1018.35 1018.45 1018.49 1018.47
1016.19 1016.26 1016.40 1016.59 1016.79 1016.97 1017.09 1017.14 1017.14 1017.09 1017.04 1017.01 1017.01 1017.05 1017.11 1017.18 1017.23 1017.25 1017.25 1017.24 1017.24 1017.27 1017.35 1017.47 1017.61 1017.75 1017.84 1017.87 1017.81 1017.69 1017.53 1017.38 1017.27 1017.25 1017.34 1017.51 1017.76 1018.03 1018.28 1018.47 1018.59 1018.62 1018.59
1016.41 1016.47 1016.59 1016.75 1016.92 1017.06 1017.15 1017.17 1017.14 1017.07 1017.00 1016.94 1016.92 1016.94 1016.98 1017.02 1017.05 1017.05 1017.03 1016.99 1016.97 1016.97 1017.01 1017.09 1017.20 1017.31 1017.38 1017.40 1017.36 1017.27 1017.15 1017.04 1016.99 1017.03 1017.17 1017.40 1017.69 1018.01 1018.31 1018.54 1018.68 1018.72 1018.69
1016.54 1016.59 1016.69 1016.83 1016.98 1017.10 1017.17 1017.18 1017.14 1017.07 1016.98 1016.92 1016.87 1016.86 1016.87 1016.88 1016.88 1016.85 1016.80 1016.74 1016.68 1016.65 1016.66 1016.70 1016.78 1016.86 1016.92 1016.94 1016.91 1016.84 1016.75 1016.69 1016.68 1016.76 1016.94 1017.21 1017.55 1017.91 1018.25 1018.53 1018.71 1018.78 1018.75
1016.58 1016.63 1016.73 1016.86 1017.00 1017.12 1017.19 1017.22 1017.19 1017.12 1017.04 1016.96 1016.91 1016.87 1016.84 1016.81 1016.77 1016.71 1016.62 1016.53 1016.45 1016.39 1016.37 1016.39 1016.45 1016.51 1016.56 1016.58 1016.57 1016.52 1016.46 1016.42 1016.44 1016.54 1016.74 1017.03 1017.38 1017.76 1018.13 1018.44 1018.66 1018.77 1018.77
1016.58 1016.63 1016.73 1016.86 1017.01 1017.14 1017.24 1017.29 1017.29 1017.25 1017.19 1017.11 1017.04 1016.97 1016.90 1016.83 1016.75 1016.65 1016.54 1016.43 1016.33 1016.25 1016.22 1016.23 1016.28 1016.33 1016.39 1016.42 1016.42 1016.40 1016.36 1016.34 1016.36 1016.46 1016.64 1016.91 1017.25 1017.62 1017.99 1018.31 1018.55 1018.69 1018.71
1016.54 1016.61 1016.73 1016.88 1017.04 1017.20 1017.34 1017.43 1017.47 1017.47 1017.42 1017.35 1017.26 1017.16 1017.06 1016.95 1016.83 1016.70 1016.56 1016.44 1016.33 1016.26 1016.23 1016.24 1016.29 1016.36 1016.43 1016.49 1016.51 1016.52 1016.50 1016.49 1016.51 1016.59 1016.73 1016.95 1017.23 1017.56 1017.89 1018.19 1018.42 1018.56 1018.59
1016.52 1016.61 1016.75 1016.92 1017.11 1017.31 1017.48 1017.62 1017.71 1017.75 1017.72 1017.66 1017.55 1017.43 1017.29 1017.14 1016.98 1016.83 1016.68 1016.55 1016.44 1016.38 1016.36 1016.38 1016.44 1016.53 1016.63 1016.72 1016.79 1016.83 1016.85 1016.86 1016.88 1016.93 1017.03 1017.18 1017.38 1017.62 1017.88 1018.12 1018.31 1018.43 1018.45
1016.53 1016.65 1016.81 1017.00 1017.22 1017.46 1017.68 1017.86 1018.00 1018.06 1018.06 1018.00 1017.88 1017.73 1017.55 1017.37 1017.18 1017.00 1016.84 1016.71 1016.61 1016.55 1016.54 1016.58 1016.66 1016.77 1016.90 1017.04 1017.16 1017.26 1017.33 1017.38 1017.42 1017.46 1017.51 1017.59 1017.71 1017.85 1018.00 1018.16 1018.28 1018.35 1018.34
1016.60 1016.74 1016.92 1017.13 1017.38 1017.64 1017.90 1018.13 1018.29 1018.39 1018.40 1018.34 1018.21 1018.03 1017.82 1017.61 1017.40 1017.20 1017.03 1016.89 1016.80 1016.74 1016.73 1016.77 1016.85 1016.98 1017.14 1017.33 1017.51 1017.68 1017.83 1017.94 1018.03 1018.08 1018.12 1018.16 1018.19 1018.24 1018.29 1018.34 1018.38 1018.37 1018.31
1016.73 1016.89 1017.08 1017.31 1017.57 1017.85 1018.13 1018.38 1018.57 1018.69 1018.71 1018.65 1018.51 1018.31 1018.08 1017.84 1017.61 1017.40 1017.22 1017.08 1016.97 1016.90 1016.88 1016.90 1016.98 1017.10 1017.29 1017.50 1017.75 1018.00 1018.23 1018.44 1018.60 1018.71 1018.77 1018.79 1018.78 1018.75 1018.72 1018.67 1018.62 1018.53 1018.41
1016.89 1017.07 1017.26 1017.50 1017.76 1018.05 1018.34 1018.60 1018.81 1018.94 1018.97 1018.90 1018.76 1018.55 1018.31 1018.06 1017.82 1017.60 1017.41 1017.26 1017.13 1017.04 1016.98 1016.97 1017.02 1017.12 1017.30 1017.54 1017.83 1018.15 1018.48 1018.79 1019.05 1019.25 1019.37 1019.41 1019.40 1019.34 1019.24 1019.13 1018.99 1018.84 1018.65
1017.06 1017.25 1017.45 1017.68 1017.94 1018.22 1018.51 1018.77 1018.98 1019.12 1019.16 1019.11 1018.97 1018.77 1018.53 1018.28 1018.05 1017.83 1017.63 1017.46 1017.31 1017.19 1017.09 1017.02 1017.01 1017.07 1017.22 1017.45 1017.77 1018.14 1018.55 1018.96 1019.32 1019.62 1019.82 1019.94 1019.96 1019.90 1019.79 1019.63 1019.46 1019.26 1019.03
1017.21 1017.42 1017.62 1017.84 1018.08 1018.35 1018.62 1018.87 1019.09 1019.23 1019.28 1019.24 1019.13 1018.95 1018.74 1018.51 1018.29 1018.08 1017.90 1017.72 1017.55 1017.38 1017.23 1017.10 1017.03 1017.02 1017.11 1017.31 1017.61 1018.01 1018.46 1018.94 1019.40 1019.80 1020.10 1020.29 1020.38 1020.37 1020.28 1020.13 1019.94 1019.73 1019.49
1017.30 1017.53 1017.73 1017.94 1018.17 1018.41 1018.67 1018.91 1019.11 1019.26 1019.33 1019.32 1019.24 1019.10 1018.93 1018.74 1018.56 1018.38 1018.21 1018.03 1017.85 1017.66 1017.46 1017.27 1017.12 1017.04 1017.06 1017.20 1017.46 1017.83 1018.29 1018.81 1019.32 1019.79 1020.18 1020.46 1020.62 1020.68 1020.64 1020.53 1020.37 1020.18 1019.95
1017.31 1017.56 1017.78 1017.99 1018.20 1018.42 1018.65 1018.88 1019.08 1019.23 1019.32 1019.35 1019.31 1019.22 1019.10 1018.96 1018.82 1018.68 1018.54 1018.39 1018.21 1018.01 1017.78 1017.55 1017.34 1017.19 1017.13 1017.19 1017.38 1017.70 1018.12 1018.62 1019.15 1019.65 1020.10 1020.45 1020.69 1020.82 1020.85 1020.81 1020.70 1020.55 1020.37
1017.21 1017.51 1017.75 1017.96 1018.16 1018.37 1018.58 1018.79 1018.99 1019.15 1019.26 1019.32 1019.32 1019.28 1019.22 1019.13 1019.05 1018.96 1018.86 1018.74 1018.59 1018.40 1018.17 1017.92 1017.68 1017.48 1017.35 1017.33 1017.44 1017.67 1018.02 1018.47 1018.96 1019.46 1019.92 1020.31 1020.61 1020.81 1020.92 1020.94 1020.91 1020.82 1020.70
Thickness
5779 5778 5775 5774 5774 5774 5774 5774 5773 5771 5770 5768 5767 5766 5764 5763 5762 5761 5761 5760 5760 5759 5759 5759 5758 5759 5759 5759 5759 5760 5760 5760 5761 5761 5762 5763 5764 5765 5766 5766 5768 5770 5768
5780 5777 5773 5772 5772 5772 5772 5772 5771 5769 5768 5766 5765 5763 5762 5761 5760 5759 5758 5757 5757 5757 5756 5756 5756 5756 5756 5757 5757 5757 5758 5758 5759 5759 5761 5762 5762 5763 5764 5765 5766 5767 5767
5779 5775 5772 5771 5770 5770 5770 5769 5768 5767 5765 5764 5762 5761 5760 5759 5758 5757 5756 5755 5754 5754 5754 5754 5754 5754 5754 5754 5754 5755 5755 5756 5756 5758 5760 5763 5762 5761 5762 5763 5764 5764 5765
5777 5774 5772 5769 5768 5768 5767 5766 5766 5765 5763 5762 5760 5759 5758 5757 5756 5755 5753 5752 5752 5751 5751 5751 5751 5751 5752 5752 5752 5753 5753 5754 5754 5757 5761 5762 5762 5759 5759 5760 5761 5762 5763
5774 5772 5769 5767 5766 5765 5764 5764 5763 5762 5761 5759 5758 5756 5756 5754 5753 5752 5751 5750 5749 5749 5748 5748 5748 5749 5749 5749 5749 5750 5750 5751 5752 5756 5758 5758 5759 5757 5757 5758 5759 5760 5761
5771 5769 5767 5764 5764 5763 5762 5761 5760 5759 5758 5757 5755 5754 5753 5752 5751 5750 5749 5748 5747 5746 5746 5746 5746 5746 5746 5746 5747 5747 5748 5749 5752 5755 5755 5756 5756 5754 5755 5756 5757 5758 5759
5769 5767 5764 5761 5761 5761 5760 5759 5758 5757 5756 5754 5753 5752 5751 5750 5749 5748 5746 5745 5744 5744 5743 5743 5743 5743 5743 5743 5744 5744 5745 5747 5751 5752 5753 5754 5753 5752 5753 5754 5755 5756 5758
5765 5764 5761 5758 5758 5758 5757 5756 5755 5755 5753 5752 5751 5750 5749 5747 5746 5745 5744 5743 5742 5742 5741 5741 5741 5741 5741 5741 5741 5741 5743 5745 5749 5751 5751 5750 5749 5749 5750 5752 5753 5755 5756
5762 5761 5759 5758 5757 5755 5755 5754 5753 5752 5751 5750 5749 5748 5747 5745 5744 5743 5742 5741 5740 5739 5739 5739 5739 5739 5739 5738 5739 5739 5740 5742 5747 5749 5750 5749 5747 5747 5748 5750 5751 5753 5755
5758 5758 5757 5756 5756 5756 5754 5752 5751 5750 5749 5748 5747 5746 5745 5744 5743 5742 5741 5739 5738 5737 5737 5737 5736 5736 5736 5736 5736 5737 5739 5741 5745 5747 5748 5746 5744 5745 5746 5748 5749 5751 5753
5752 5754 5754 5754 5754 5754 5754 5751 5750 5748 5747 5747 5746 5744 5745 5746 5745 5742 5739 5737 5736 5735 5735 5734 5734 5734 5734 5734 5734 5735 5738 5742 5743 5745 5744 5741 5741 5743 5744 5746 5747 5749 5751
5747 5750 5752 5753 5753 5753 5752 5751 5751 5750 5748 5748 5747 5745 5745 5744 5743 5741 5737 5735 5734 5734 5733 5732 5732 5733 5735 5736 5735 5735 5739 5740 5742 5742 5740 5738 5739 5740 5742 5743 5745 5747 5749
5746 5747 5750 5751 5751 5751 5750 5750 5750 5749 5746 5746 5745 5744 5743 5743 5742 5741 5739 5737 5735 5734 5735 5732 5734 5735 5736 5734 5735 5736 5736 5738 5739 5739 5736 5734 5735 5737 5739 5741 5742 5744 5746
5743 5744 5747 5749 5750 5750 5749 5748 5748 5747 5746 5745 5744 5744 5743 5742 5741 5740 5739 5736 5735 5734 5733 5734 5733 5734 5734 5734 5734 5734 5734 5734 5735 5735 5732 5731 5732 5734 5736 5738 5740 5742 5744
5739 5741 5744 5746 5748 5748 5746 5745 5746 5744 5745 5744 5741 5742 5741 5740 5740 5738 5737 5733 5734 5733 5733 5732 5733 5732 5731 5731 5731 5731 5731 5732 5732 5732 5730 5728 5729 5731 5732 5735 5737 5739 5741
5738 5740 5741 5743 5743 5744 5745 5744 5743 5743 5740 5741 5739 5739 5738 5737 5737 5735 5735 5732 5732 5731 5731 5730 5730 5728 5728 5728 5727 5727 5727 5729 5729 5729 5729 5727 5727 5728 5729 5731 5733 5735 5737
5738 5739 5739 5739 5740 5741 5741 5740 5740 5739 5740 5738 5737 5737 5736 5734 5734 5734 5733 5732 5730 5729 5729 5728 5727 5726 5725 5724 5724 5723 5724 5724 5725 5725 5726 5726 5726 5725 5726 5727 5729 5731 5733
5737 5737 5737 5737 5737 5737 5737 5736 5737 5737 5736 5735 5735 5734 5734 5732 5732 5730 5730 5729 5727 5726 5726 5725 5724 5723 5722 5721 5721 5721 5721 5720 5722 5722 5723 5724 5724 5725 5724 5724 5726 5727 5729
5736 5736 5735 5735 5735 5734 5734 5733 5733 5733 5732 5733 5732 5731 5730 5730 5729 5728 5726 5726 5725 5724 5724 5722 5721 5721 5718 5717 5717 5717 5718 5718 5718 5719 5721 5721 5721 5722 5723 5722 5723 5724 5725
5735 5735 5734 5732 5732 5732 5731 5731 5730 5730 5730 5729 5728 5727 5727 5727 5727 5726 5724 5724 5723 5722 5720 5719 5717 5716 5715 5715 5716 5714 5714 5715 5716 5716 5717 5717 5718 5719 5720 5720 5721 5721 5721
5732 5733 5731 5730 5730 5729 5728 5727 5727 5726 5727 5726 5725 5724 5723 5724 5724 5723 5723 5722 5720 5719 5718 5718 5716 5713 5713 5714 5712 5709 5710 5713 5713 5711 5712 5714 5714 5714 5716 5716 5717 5718 5719
5730 5730 5730 5729 5729 5728 5726 5727 5725 5724 5724 5723 5722 5721 5721 5721 5721 5721 5720 5719 5717 5715 5715 5714 5712 5712 5710 5711 5710 5707 5703 5704 5706 5708 5709 5709 5710 5711 5712 5713 5713 5713 5715
5728 5729 5729 5729 5728 5726 5725 5724 5722 5721 5721 5721 5720 5718 5717 5718 5717 5716 5717 5717 5715 5715 5713 5712 5711 5709 5708 5708 5710 5707 5703 5700 5702 5704 5705 5706 5706 5706 5707 5708 5708 5709 5710
5729 5729 5729 5727 5727 5725 5724 5723 5721 5719 5718 5718 5718 5716 5715 5714 5714 5714 5714 5713 5714 5713 5711 5711 5710 5709 5707 5706 5706 5706 5708 5706 5702 5698 5700 5702 5702 5702 5703 5703 5703 5704 5705
5728 5727 5727 5726 5725 5724 5723 5721 5719 5719 5717 5716 5715 5713 5713 5712 5711 5711 5711 5711 5711 5710 5709 5708 5707 5707 5707 5706 5705 5705 5704 5703 5706 5701 5696 5696 5698 5699 5698 5698 5698 5699 5699
5726 5724 5724 5722 5721 5720 5719 5719 5718 5716 5714 5712 5711 5710 5711 5710 5709 5709 5708 5708 5708 5708 5707 5705 5704 5704 5704 5703 5704 5704 5702 5701 5700 5699 5696 5694 5693 5694 5695 5693 5694 5694 5694